Flag for France Weather past 2 weeks in Bordeaux, France

Now
55 °F

Low clouds.


Feels Like: 51 °F
Forecast: 42 / 54 °F
Wind: 18 mph from West

Location: Bordeaux / Merignac

Current Time: Mar 31, 2015 at 3:23:06 PM

Latest Report: Mar 31, 2015 at 3:00 PM


Visibility: N/A

Pressure: 30.36 "Hg

Humidity: 94%

Dew point: 54 °F

Location of BordeauxLocation

Historic Weather in Bordeaux — Graph

°F

Bordeaux temperature yesterday

Maximum temperature yesterday: 57 °F (at 2:30 PM)
Minimum temperature yesterday: 54 °F (at 12:00 AM)
Average temperature yesterday: 54 °F

Past Weeks' High & Low Weather Summary

 TemperatureHumidityPressure
High64 °F (Mar 17, 3:00 PM)100% (Mar 21, 8:30 AM)30.36 "Hg (Mar 21, 8:30 AM)
Low34 °F (Mar 25, 5:30 AM)42% (Mar 17, 2:30 PM)29.74 "Hg (Mar 24, 6:30 AM)
Average50 °F80%30.09 "Hg
* Reported Mar 16 1:00 PM — Mar 31 2:00 PM, Bordeaux, Weather by CustomWeather, © 2015

Note: Actual official high and low records may vary slightly from our data, if they occured in-between our weather recording intervals... More about our weather records

Advertising

Bordeaux weather history for previous 24 hours

 ConditionsComfort  
Time TempWeatherWind HumidityBarometerVisibility
2:00 PM
Tue, Mar 31
55 °FLight rain. Cloudy.18 mph88%30.36 "HgN/A
1:30 PM55 °FDrizzle. Low clouds.22 mph88%30.36 "Hg6 mi
1:00 PM55 °FDrizzle. Low clouds.20 mph94%30.36 "Hg4 mi
12:30 PM54 °FDrizzle. Low clouds.18 mph94%30.36 "Hg4 mi
12:00 PM54 °FDrizzle. Fog.17 mph94%30.36 "Hg3 mi
11:30 AM54 °FDrizzle. Fog.16 mph94%30.36 "Hg3 mi
11:00 AM54 °FDrizzle. Low clouds.15 mph94%30.33 "Hg4 mi
10:30 AM54 °FDrizzle. Low clouds.17 mph88%30.33 "HgN/A
10:00 AM54 °FMostly cloudy.15 mph94%30.33 "HgN/A
9:30 AM52 °FDrizzle. Fog.16 mph94%30.33 "Hg3 mi
9:00 AM52 °FDrizzle. Mostly cloudy.14 mph94%30.33 "Hg4 mi
8:30 AM52 °FDrizzle. Mostly cloudy.15 mph94%30.30 "HgN/A
8:00 AM52 °FDrizzle. Low clouds.16 mph94%30.30 "Hg5 mi
7:30 AM52 °FDrizzle. Mostly cloudy.15 mph94%30.30 "Hg4 mi
7:00 AM52 °FDrizzle. Mostly cloudy.14 mph94%30.30 "Hg5 mi
6:30 AM52 °FDrizzle. Mostly cloudy.16 mph94%30.27 "Hg5 mi
6:00 AM52 °FDrizzle. Mostly cloudy.20 mph94%30.27 "HgN/A
5:30 AM52 °FMostly cloudy.21 mph94%30.27 "HgN/A
4:30 AM54 °FLow clouds.21 mph94%30.27 "HgN/A
4:00 AM54 °FDrizzle. Fog.18 mph94%30.27 "Hg3 mi
3:30 AM54 °FDrizzle. Fog.18 mph94%30.27 "Hg2 mi
3:00 AM54 °FLow clouds.21 mph94%30.27 "Hg4 mi
2:30 AM54 °FLow clouds.20 mph94%30.30 "HgN/A
2:00 AM54 °FFog.16 mph94%30.30 "Hg3 mi
1:30 AM54 °FLow clouds.15 mph94%30.30 "HgN/A
1:00 AM54 °FLow clouds.15 mph94%30.30 "HgN/A
12:30 AM54 °FLow clouds.15 mph94%30.30 "HgN/A
12:00 AM54 °FMostly cloudy.15 mph94%30.30 "HgN/A
11:30 PM
Mon, Mar 30
54 °FLow clouds.13 mph94%30.30 "HgN/A
11:00 PM54 °FLow clouds.13 mph94%30.33 "Hg5 mi
10:30 PM54 °FLow clouds.13 mph94%30.33 "HgN/A
10:00 PM54 °FLow clouds.12 mph94%30.33 "HgN/A
9:30 PM54 °FLight rain. Mostly cloudy.12 mph94%30.30 "HgN/A
9:00 PM54 °FMostly cloudy.13 mph94%30.30 "HgN/A
8:30 PM54 °FLow clouds.14 mph94%30.30 "HgN/A
8:00 PM54 °FMostly cloudy.15 mph94%30.27 "HgN/A
7:30 PM55 °FLow clouds.15 mph88%30.27 "HgN/A
7:00 PM55 °FLight rain. Low clouds.15 mph88%30.27 "HgN/A
6:30 PM55 °FMostly cloudy.18 mph88%30.27 "HgN/A
6:00 PM55 °FDrizzle. Low clouds.17 mph94%30.27 "Hg4 mi
5:30 PM55 °FDrizzle. Fog.16 mph94%30.27 "Hg3 mi
5:00 PM55 °FDrizzle. Low clouds.18 mph94%30.27 "Hg5 mi
4:30 PM55 °FDrizzle. Low clouds.16 mph94%30.24 "Hg4 mi
4:00 PM55 °FDrizzle. Fog.18 mph94%30.27 "Hg3 mi
3:30 PM55 °FLow clouds.18 mph94%30.27 "HgN/A
Weather by CustomWeather, © 2015

See weather overviewHow to use our weather pages